Regional Weather Roundup
Issued by NWS Sioux Falls, SD

Home | Current Version | Previous Version | Graphics & Text | Print | Product List | Glossary On
Versions: 1 2 3 4 5 6 7 8 9 10 11 12 13 14 15 16 17 18 19 20 21 22 23 24 25 26 27 28 29 30 31 32 33 34 35 36 37 38 39 40 41 42 43 44 45 46 47 48 49 50
000
ASUS43 KFSD 211310
RWRFSD

WEATHER ROUNDUP FOR SE SOUTH DAKOTA/SW MINNESOTA/NW IOWA
NATIONAL WEATHER SERVICE SIOUX FALLS SD
700 AM CST WED FEB 21 2018

NOTE: "FAIR" INDICATES FEW OR NO CLOUDS BELOW 12,000 FEET WITH NO
SIGNIFICANT WEATHER AND OR OBSTRUCTIONS TO VISIBILITY.


SDZ038>040-050-052>070-211400-
SOUTHEAST SOUTH DAKOTA

CITY           SKY/WX    TMP DP  RH WIND       PRES   REMARKS
BROOKINGS      PTCLDY    -6 -10  83 MISG      30.48R
CHAMBERLAIN    CLEAR     -9 -13  79 CALM      30.47R
HURON          CLEAR     -8 -13  78 E3        30.50S
MADISON        FAIR      -8  -9  92 MISG      30.47R
MITCHELL       CLEAR     -3 -10  72 W5        30.52S WCI -13
SIOUX FALLS    PTCLDY    -4  -9  79 CALM      30.51S
WINNER         FAIR      -1 -11  62 SW8       30.42F WCI -15
YANKTON        PTCLDY    -3  -6  87 SW3       30.55S
$$

MNZ071-072-080-081-089-090-097-098-211400-
SOUTHWEST MINNESOTA

CITY           SKY/WX    TMP DP  RH WIND       PRES   REMARKS
FAIRMONT       CLEAR      0  -4  83 W7        30.54S WCI -13
JACKSON        CLOUDY     0  -6  78 W6        30.51R WCI -12
LUVERNE        CLOUDY    -6 -11  77 W6        30.52R WCI -18
MARSHALL       PTCLDY    -5 -10  79 SW7       30.52S WCI -19
MONTEVIDEO     PTCLDY    -2  -8  78 W5        30.52R WCI -12
PIPESTONE      PTCLDY    -8 -11  84 NW5       30.47S WCI -19
REDWOOD FALLS  CLOUDY    -1  -7  75 W10       30.52S WCI -17
TRACY          PTCLDY    -2  -7  77 SW9       30.49F WCI -17
WORTHINGTON    CLEAR     -3  -8  79 SW5       30.49S WCI -13
$$

IAZ001>003-012>014-020>022-031-032-NEZ013-014-SDZ071-211400-
NORTHWEST IOWA

CITY           SKY/WX    TMP DP  RH WIND       PRES   REMARKS
CHEROKEE       CLEAR      2  -2  83 CALM      30.56R
DENISON        CLEAR      5   1  85 CALM      30.60R
ESTHERVILLE    CLOUDY     0  -5  79 W6        30.52R WCI -12
LE MARS        PTCLDY     0  -4  85 CALM      30.57R
ORANGE CITY    CLOUDY    -2  -6  84 W3        30.52S
SHELDON        CLOUDY    -2  -8  78 CALM      30.52R
SIOUX CITY     CLOUDY     1  -2  87 W5        30.58R WCI  -9
SPENCER        MIX PCPN  -1  -5  82 W5        30.53R WCI -11
STORM LAKE     CLEAR      1  -2  85 CALM      30.54R
$$

ABBREVIATIONS USED IN REMARKS
   TC - TEMPERATURE IN CELSIUS
  WCI - WIND CHILL INDEX
   HX - HEAT INDEX
  VSB - VISIBILITY





USA.gov is the U.S. government's official web portal to all federal, state and local government web resources and services.